{"data":{"norad_id":67250,"intl_designator":"2025-313C","name":"2025-313C","alt_names":[],"object_type":"PAYLOAD","status":"ACTIVE","operator":null,"country":"TBD","launch_date":"2025-12-28","launch_site_code":"VOSTO","launch_vehicle":null,"mission":null,"orbit_class":"UNKNOWN","rcs_meters":null,"size_class":null,"mass_kg":null,"dimensions":null,"purposes":[],"wikipedia_slug":null,"has_3d_model":false,"image_url":null,"decayed_at":null,"tle_current":{"epoch":"2026-05-25T02:41:38.239296Z","epoch_age_seconds":62572,"freshness":"FRESH","line1":"1 67250U 25313C   26145.11224814  .00001285  00000+0  11747-3 0  9993","line2":"2 67250  97.6178 216.6993 0153366  54.1085 307.4258 14.88188745 21920","mean_motion":14.88188745,"eccentricity":0.0153366,"inclination_deg":97.6178,"raan_deg":216.6993,"arg_perigee_deg":54.1085,"mean_anomaly_deg":307.4258,"bstar":0.00011747,"rev_number":2192,"period_min":96.761919806079,"perigee_km":496.51881348972,"apogee_km":710.67087062756,"semimajor_km":6981.7318420586,"source":"CELESTRAK","updated_at":"2026-05-25T13:38:06.842944Z"}}}